Temp
11 13 11 11 11 11 11 10 10 9 9 9 9 9 8 8 7 6 6 5 5 4
10 11 11 11 11 10 10 10 9 9 9 9 9 8 7 7 6 6 5 4 4 3
10 10 10 11 10 9 9 9 9 9 8 8 8 7 7 6 5 5 4 3 3 2
10 10 10 10 9 9 8 8 9 8 8 8 7 7 6 5 5 4 3 3 2 2
9 9 8 8 8 8 8 7 8 7 7 7 6 6 5 4 4 3 3 2 1 0
8 8 7 7 6 7 7 7 7 7 7 6 5 5 4 4 3 2 1 1 0 -0
7 7 6 6 6 7 6 7 6 6 6 5 4 4 3 3 2 2 1 0 -0 -2
6 6 5 5 6 5 6 6 6 5 5 4 4 3 2 2 1 1 0 -0 -1 -2
4 4 5 3 5 5 6 5 5 5 4 3 3 2 2 1 1 0 -0 -1 -2 -3
3 3 2 3 3 5 4 5 4 3 3 3 2 2 1 0 -0 -1 -1 -2 -4 -5
2 1 1 2 4 3 4 3 3 2 2 2 2 1 0 -1 -1 -1 -2 -4 -6 -6
3 1 1 2 3 4 3 3 2 2 2 1 0 -0 -1 -1 -2 -3 -4 -5 -6 -6
2 3 2 3 3 3 2 2 2 1 0 -0 -1 -2 -2 -2 -3 -4 -5 -5 -6 -7
1 2 3 3 2 2 2 1 0 -1 -1 -2 -2 -3 -4 -4 -5 -6 -7 -8 -8 -8
Height
1435 1438 1445 1452 1457 1463 1467 1471 1475 1481 1486 1490 1493 1494 1496 1497 1497 1497 1496 1496 1496 1495
1432 1436 1441 1447 1453 1459 1464 1467 1473 1477 1482 1487 1489 1491 1492 1493 1493 1493 1492 1492 1491 1491
1428 1434 1440 1445 1449 1456 1459 1465 1470 1474 1480 1483 1486 1488 1489 1490 1489 1489 1488 1487 1487 1486
1426 1431 1436 1443 1448 1453 1458 1463 1467 1473 1477 1481 1483 1485 1486 1486 1485 1485 1484 1483 1482 1481
1423 1427 1434 1440 1445 1451 1455 1461 1465 1470 1475 1478 1480 1482 1483 1483 1482 1481 1480 1479 1477 1476
1420 1424 1431 1436 1444 1448 1455 1459 1465 1469 1473 1475 1478 1479 1480 1480 1479 1478 1476 1474 1472 1471
1418 1424 1429 1435 1442 1446 1454 1459 1463 1466 1470 1472 1475 1476 1477 1476 1475 1474 1472 1470 1468 1466
1418 1423 1428 1435 1440 1447 1453 1458 1462 1465 1468 1470 1470 1473 1473 1472 1471 1469 1468 1465 1463 1461
1416 1421 1429 1434 1439 1445 1450 1456 1461 1464 1466 1465 1468 1469 1470 1468 1467 1465 1462 1460 1458 1456
1418 1424 1428 1433 1443 1446 1450 1452 1456 1462 1463 1464 1465 1465 1465 1464 1462 1460 1458 1455 1453 1452
1419 1424 1432 1438 1444 1451 1450 1452 1455 1460 1461 1461 1461 1461 1460 1459 1457 1456 1454 1452 1450 1448
1425 1435 1438 1441 1444 1446 1450 1454 1455 1457 1458 1457 1457 1456 1456 1455 1453 1451 1449 1447 1445 1443
1425 1430 1443 1445 1444 1446 1451 1451 1454 1455 1455 1455 1455 1454 1452 1451 1448 1446 1444 1442 1439 1437
1434 1439 1441 1442 1444 1447 1451 1453 1453 1453 1453 1453 1452 1451 1449 1446 1444 1441 1439 1437 1434 1432
Wind_Speed
35 34 31 38 42 39 38 36 31 27 24 19 15 11 8 7 8 10 11 12 12 12
35 32 34 40 42 41 37 34 29 27 24 19 15 11 8 8 9 10 13 13 14 15
38 34 33 36 39 39 36 31 28 27 23 18 13 9 8 9 10 11 13 15 16 17
35 33 33 37 36 36 34 28 27 25 20 15 11 9 9 10 12 13 14 15 17 19
36 32 35 38 37 34 28 27 26 23 17 13 10 8 9 11 13 14 15 16 18 20
35 36 37 36 35 30 28 27 24 19 15 11 8 8 9 12 13 14 15 17 19 21
37 37 37 36 33 29 27 24 20 16 12 8 6 8 12 13 14 15 17 18 20 22
37 36 35 35 31 28 25 22 17 12 8 5 8 11 12 14 15 17 18 19 20 21
39 39 36 30 29 27 23 17 11 8 7 6 10 11 14 15 16 18 19 20 20 21
37 34 31 29 25 21 20 14 8 5 5 9 11 12 14 16 17 18 18 19 19 21
31 27 26 23 22 16 10 8 6 4 8 9 12 13 14 16 17 18 18 16 17 20
27 26 23 21 16 11 8 4 5 5 7 9 12 14 15 16 18 19 17 16 18 19
22 19 19 15 11 7 4 3 4 6 7 9 10 14 17 18 20 21 19 19 19 18
20 19 13 10 4 3 3 4 3 5 7 10 12 13 17 21 22 19 19 23 22 21
Wind_Direction
218 222 212 204 200 200 202 202 200 196 201 203 212 223 241 269 293 308 314 316 313 308
211 210 202 202 200 200 200 197 196 200 201 202 212 224 246 274 294 308 312 313 312 308
207 202 206 204 197 198 196 194 198 199 197 203 212 229 257 281 296 305 309 308 308 306
201 203 198 193 194 197 192 197 197 195 198 205 219 240 263 284 298 305 307 306 305 306
197 192 187 189 191 192 191 190 191 189 195 207 224 248 275 293 301 304 306 306 304 303
185 185 186 187 185 184 188 185 184 189 200 213 234 265 288 300 302 305 306 305 305 305
181 183 183 181 182 183 183 182 182 191 204 219 251 286 299 300 303 304 304 305 304 303
180 181 178 180 177 175 174 179 184 191 203 232 285 300 300 304 304 304 305 305 301 300
175 174 176 173 169 170 174 173 183 199 243 277 296 303 301 301 304 306 308 307 304 302
171 170 166 161 165 170 168 173 199 213 269 299 307 299 298 303 307 310 311 311 309 308
162 157 162 155 165 166 173 165 171 256 300 298 291 295 302 304 310 314 315 313 309 301
147 156 156 162 163 159 158 180 289 290 283 288 296 299 304 308 313 317 316 304 296 300
147 159 166 152 143 148 226 279 277 276 288 296 295 299 309 315 320 321 314 314 317 317
148 150 147 148 155 204 219 238 267 292 298 305 311 315 319 321 323 326 331 326 323 321